TimeMST,TemperatureF,Dew PointF,Humidity,Sea Level PressureIn,VisibilityMPH,Wind Direction,Wind SpeedMPH,Gust SpeedMPH,PrecipitationIn,Events,Conditions,WindDirDegrees,DateUTC
12:53 AM,51.1,46.9,86,30.02,8.0,NNW,4.6,-,0.03,Rain,Light Rain,340,2013-01-26 07:53:00
1:53 AM,51.1,48.0,89,29.97,10.0,North,8.1,-,0.00,Rain,Light Rain,350,2013-01-26 08:53:00
2:53 AM,50.0,48.0,93,29.98,10.0,SE,4.6,-,0.00,,Overcast,140,2013-01-26 09:53:00
3:53 AM,50.0,48.0,93,29.95,10.0,NNE,4.6,-,0.02,Rain,Light Rain,30,2013-01-26 10:53:00
4:53 AM,50.0,48.0,93,29.94,10.0,Calm,Calm,-,0.00,,Overcast,0,2013-01-26 11:53:00
5:53 AM,48.9,46.9,93,29.94,10.0,Calm,Calm,-,N/A,,Overcast,0,2013-01-26 12:53:00
6:53 AM,48.9,46.9,93,29.95,10.0,ENE,4.6,-,N/A,,Overcast,70,2013-01-26 13:53:00
7:53 AM,50.0,48.0,93,29.96,10.0,Calm,Calm,-,N/A,,Overcast,0,2013-01-26 14:53:00
8:53 AM,51.1,48.9,92,29.99,10.0,Calm,Calm,-,0.00,Rain,Light Rain,0,2013-01-26 15:53:00
9:53 AM,53.1,48.9,86,30.00,10.0,Calm,Calm,-,0.00,,Overcast,0,2013-01-26 16:53:00
10:53 AM,55.0,50.0,83,29.97,10.0,Calm,Calm,-,0.00,,Overcast,0,2013-01-26 17:53:00
11:53 AM,55.0,48.9,80,29.97,10.0,Calm,Calm,-,0.00,,Overcast,0,2013-01-26 18:53:00
12:53 PM,57.9,51.1,78,29.91,10.0,East,3.5,-,0.01,,Scattered Clouds,80,2013-01-26 19:53:00
1:53 PM,59.0,50.0,72,29.88,10.0,Calm,Calm,-,0.00,Rain,Light Rain,0,2013-01-26 20:53:00
2:30 PM,57.2,51.8,82,30.01,1.8,WSW,8.1,-,0.05,Rain,Rain,250,2013-01-26 21:30:00
2:43 PM,55.4,53.6,94,29.99,4.0,South,5.8,-,0.10,Rain,Light Rain,190,2013-01-26 21:43:00
2:53 PM,57.0,54.0,89,29.88,10.0,SW,8.1,-,0.10,Rain,Light Rain,220,2013-01-26 21:53:00
3:53 PM,59.0,54.0,83,29.86,10.0,SW,12.7,24.2,0.01,Rain,Light Rain,220,2013-01-26 22:53:00
4:53 PM,57.0,52.0,83,29.90,3.0,WSW,24.2,29.9,0.03,Rain,Heavy Rain,250,2013-01-26 23:53:00
4:56 PM,55.4,48.2,77,30.00,1.8,WSW,19.6,29.9,0.04,Rain,Heavy Rain,250,2013-01-26 23:56:00
5:04 PM,53.6,46.4,77,29.99,3.0,WSW,13.8,27.6,0.04,Rain,Light Rain,250,2013-01-27 00:04:00
5:53 PM,54.0,46.9,77,29.89,10.0,SSW,9.2,-,0.04,,Partly Cloudy,210,2013-01-27 00:53:00
6:53 PM,55.0,46.9,74,29.90,10.0,SSW,10.4,-,N/A,,Mostly Cloudy,200,2013-01-27 01:53:00
7:53 PM,54.0,46.0,75,29.92,10.0,West,11.5,-,N/A,,Partly Cloudy,270,2013-01-27 02:53:00
8:53 PM,51.1,46.9,86,29.93,10.0,West,5.8,-,N/A,,Clear,260,2013-01-27 03:53:00
9:53 PM,48.9,45.0,86,29.94,10.0,SSE,5.8,-,N/A,,Partly Cloudy,160,2013-01-27 04:53:00
10:53 PM,46.9,44.1,90,29.94,10.0,SW,4.6,-,N/A,,Clear,230,2013-01-27 05:53:00
11:53 PM,43.0,41.0,93,29.94,10.0,Calm,Calm,-,N/A,,Clear,0,2013-01-27 06:53:00